Tracking 27401 objects as of 4-Jun-2023
HD Live streaming from Space Station
objects crossing your sky now

EUTE 8 WEST A (AB 2)

Track EUTE 8 WEST A (AB 2) now!
EUTE 8 WEST A (AB 2) is classified as:


NORAD ID: 26927
Int'l Code: 2001-042A
Perigee: 36,281.8 km
Apogee: 36,297.9 km
Inclination: 3.8 °
Period: 1,461.5 minutes
Semi major axis: 42660 km
RCS: 14.2528 m2 (large)
Launch date: September 25, 2001
Source: European Telecommunications Satellite Organization (EUTE)
Launch site: FRENCH GUIANA (FRGUI)

European and American coverage.
Your satellite tracking list
Your tracking list is empty




NASA's NSSDC Master Catalog

Two Line Element Set (TLE):
1 26927U 01042A   23154.81795553 -.00000083  00000-0  00000-0 0  9993
2 26927   3.7521  83.4667 0001887 257.8442 226.2893  0.98527908 79226
Source of the keplerian elements: AFSPC